Satellite: HRBE Catalog number: 37855 Epoch time: 13045.89376817 Element set: 420 Inclination: 101.7156 deg RA of node: 203.4702 deg Eccentricity: 0.0240287 Arg of perigee: 016.7639 deg Mean anomaly: 344.1333 deg Mean motion: 14.82674469 rev/day Decay rate: 1.879e-05 rev/day^2 Epoch rev: 7032 Checksum: 307
Satellite: RS-39 Catalog number: 38051 Epoch time: 13045.73285944 Element set: 171 Inclination: 051.6359 deg RA of node: 079.9858 deg Eccentricity: 0.0012202 Arg of perigee: 179.6677 deg Mean anomaly: 290.8666 deg Mean motion: 15.29191553 rev/day Decay rate: 8.047e-05 rev/day^2 Epoch rev: 5902 Checksum: 340
Satellite: E-STAR Catalog number: 38079 Epoch time: 13045.62788331 Element set: 895 Inclination: 069.4782 deg RA of node: 113.7089 deg Eccentricity: 0.0666339 Arg of perigee: 297.3668 deg Mean anomaly: 056.1219 deg Mean motion: 14.34109701 rev/day Decay rate: 4.0202e-04 rev/day^2 Epoch rev: 5210 Checksum: 317
Satellite: GOLIAT Catalog number: 38085 Epoch time: 13045.61951932 Element set: 828 Inclination: 069.4856 deg RA of node: 115.0891 deg Eccentricity: 0.0673312 Arg of perigee: 298.0947 deg Mean anomaly: 055.3723 deg Mean motion: 14.32532830 rev/day Decay rate: 3.5593e-04 rev/day^2 Epoch rev: 5206 Checksum: 316
Satellite: HORYU-2 Catalog number: 38340 Epoch time: 13045.37382985 Element set: 369 Inclination: 098.2045 deg RA of node: 352.0874 deg Eccentricity: 0.0011740 Arg of perigee: 284.9717 deg Mean anomaly: 075.0174 deg Mean motion: 14.70612234 rev/day Decay rate: 8.55e-06 rev/day^2 Epoch rev: 4006 Checksum: 296
Satellite: RS-40 Catalog number: 38736 Epoch time: 13045.48864529 Element set: 187 Inclination: 082.4726 deg RA of node: 231.6357 deg Eccentricity: 0.0018091 Arg of perigee: 236.1810 deg Mean anomaly: 123.7553 deg Mean motion: 12.42650622 rev/day Decay rate: 1.0e-07 rev/day^2 Epoch rev: 2500 Checksum: 277
Satellite: PROITERES Catalog number: 38756 Epoch time: 13045.73372358 Element set: 507 Inclination: 098.2648 deg RA of node: 120.4839 deg Eccentricity: 0.0013372 Arg of perigee: 132.8775 deg Mean anomaly: 227.3555 deg Mean motion: 14.74074912 rev/day Decay rate: 3.77e-06 rev/day^2 Epoch rev: 2335 Checksum: 312
Satellite: RAIKO Catalog number: 38852 Epoch time: 13045.31529789 Element set: 142 Inclination: 051.6473 deg RA of node: 354.2899 deg Eccentricity: 0.0012237 Arg of perigee: 259.3672 deg Mean anomaly: 100.5957 deg Mean motion: 15.60898715 rev/day Decay rate: 3.7285e-04 rev/day^2 Epoch rev: 2059 Checksum: 330
Satellite: FITSAT 1 Catalog number: 38853 Epoch time: 13045.87427826 Element set: 140 Inclination: 051.6473 deg RA of node: 350.5379 deg Eccentricity: 0.0008837 Arg of perigee: 277.3180 deg Mean anomaly: 082.6831 deg Mean motion: 15.63015353 rev/day Decay rate: 5.0022e-04 rev/day^2 Epoch rev: 2074 Checksum: 291
Satellite: TechEdSat Catalog number: 38854 Epoch time: 13045.87630665 Element set: 158 Inclination: 051.6425 deg RA of node: 348.2761 deg Eccentricity: 0.0006362 Arg of perigee: 276.3424 deg Mean anomaly: 083.6854 deg Mean motion: 15.68423387 rev/day Decay rate: 8.9079e-04 rev/day^2 Epoch rev: 2077 Checksum: 332
Satellite: F 1 Catalog number: 38855 Epoch time: 13045.89843180 Element set: 160 Inclination: 051.6430 deg RA of node: 348.4130 deg Eccentricity: 0.0006462 Arg of perigee: 290.0204 deg Mean anomaly: 070.0124 deg Mean motion: 15.67780506 rev/day Decay rate: 8.3370e-04 rev/day^2 Epoch rev: 2066 Checksum: 269
Satellite: WeWish Catalog number: 38856 Epoch time: 13045.89292060 Element set: 181 Inclination: 051.6382 deg RA of node: 343.0805 deg Eccentricity: 0.0004033 Arg of perigee: 253.2660 deg Mean anomaly: 106.8301 deg Mean motion: 15.84475767 rev/day Decay rate: 3.09601e-03 rev/day^2 Epoch rev: 2073 Checksum: 281
/EX
participants (1)
-
Ray Hoad